Wind_Speed
12 12 12 11 11 11 11 11 11 11 11 11 12 12 12 12 12 12 11 11 11 11 11 12 11 10 10 12 14 16 17 17 18 18 19 20 22 24 25 25 26 26 26 24 23 21 19 16 14 11 8 7 5 2 9 10 5 4 4 3 4 0 4 5 5 5 7 9 8 9 8 8 9 8 6 10 11 10 12 10 11 9 10 13 13 13 16 17
13 12 12 12 12 12 12 12 11 11 11 11 11 11 11 11 11 12 12 12 11 11 11 11 11 10 10 10 12 14 14 16 17 16 19 20 20 21 22 23 24 26 26 24 23 22 20 18 15 13 9 7 7 5 8 11 5 2 3 2 2 1 4 4 4 5 6 8 8 9 8 7 9 8 7 10 11 10 11 11 11 11 13 14 12 12 14 17
14 13 13 13 12 12 12 12 12 12 11 11 11 11 11 11 11 11 12 12 12 12 11 11 11 10 9 9 11 11 11 12 12 14 19 20 19 20 20 21 23 25 25 24 22 21 19 18 16 14 10 8 9 7 7 9 7 4 4 3 3 0 2 3 4 4 5 6 8 9 8 8 8 8 8 10 11 9 11 12 13 13 15 14 12 12 14 16
15 14 14 14 13 13 13 13 12 12 12 12 11 11 11 10 10 11 11 12 12 12 12 11 11 10 9 9 9 10 8 5 7 14 17 16 18 18 19 20 22 23 24 24 23 22 19 18 18 14 11 10 11 10 8 9 8 5 6 6 5 1 1 3 3 4 5 6 8 8 7 8 8 8 8 11 10 9 10 11 12 14 15 14 12 13 14 15
16 15 15 15 14 14 14 14 13 13 13 12 12 12 11 10 10 10 11 11 11 11 11 11 11 10 9 8 8 7 3 2 6 17 15 14 17 18 19 20 21 22 22 24 24 23 21 20 19 16 15 13 12 12 12 11 8 8 10 9 6 3 1 2 3 4 4 5 7 7 7 8 8 9 9 10 8 7 10 11 12 13 12 12 13 13 14 15
17 16 16 16 16 16 15 15 14 14 13 13 13 12 12 11 11 11 11 11 10 10 10 11 10 9 8 8 8 6 4 4 6 15 14 13 17 17 19 20 21 22 22 23 24 24 23 21 20 19 17 16 15 14 13 12 11 12 12 9 7 6 2 1 3 5 3 4 7 7 7 8 8 9 9 10 6 6 10 12 13 13 11 10 12 12 13 15
18 18 17 17 17 16 16 16 16 15 15 14 13 13 13 12 12 11 11 11 10 10 10 10 10 9 8 8 7 8 8 6 8 17 15 12 15 17 19 20 21 22 23 24 24 25 24 22 22 20 18 17 16 15 13 13 13 13 11 9 8 8 5 2 2 4 4 4 7 8 8 8 8 9 10 10 6 8 10 12 14 14 12 12 12 13 13 14
20 19 19 18 18 18 17 17 17 17 16 15 14 14 13 13 12 12 12 12 11 10 10 10 10 8 8 8 8 8 7 6 14 22 17 13 15 17 19 20 22 23 23 24 24 24 24 24 24 21 19 19 16 15 14 13 14 15 13 10 9 8 8 6 5 5 5 5 7 8 8 9 9 9 10 11 8 9 11 13 15 14 14 14 13 14 14 14
21 20 20 20 19 19 19 18 18 17 17 17 16 15 14 13 13 13 13 13 12 11 10 10 10 9 9 8 8 8 7 11 18 20 17 17 16 17 20 21 22 24 24 24 24 24 25 25 25 22 20 18 17 16 14 15 16 15 14 12 10 10 10 9 8 8 7 6 9 9 9 9 9 9 10 12 10 10 13 15 15 12 13 15 14 15 15 15
20 21 21 21 21 20 20 20 19 18 18 18 17 16 15 14 14 14 14 13 13 12 12 11 10 10 10 9 9 9 11 14 16 17 17 18 18 18 20 21 23 24 24 25 25 26 26 25 24 22 20 19 18 18 16 17 17 12 11 12 13 12 11 10 9 9 8 8 11 11 10 10 11 10 10 13 12 12 15 15 15 13 12 14 15 15 16 16
20 20 21 21 21 21 21 21 20 20 19 19 18 17 16 16 15 15 14 14 14 13 13 12 11 11 11 12 10 9 14 14 13 16 16 16 18 19 19 21 23 24 24 25 26 26 26 26 22 19 21 20 18 18 18 19 16 11 10 11 12 13 12 11 10 10 10 10 13 12 11 11 12 10 10 15 14 13 16 16 16 15 12 14 16 16 17 17
19 19 20 21 21 21 22 22 21 21 21 20 20 19 18 17 16 15 15 15 15 15 15 14 14 13 13 14 10 9 14 14 14 16 16 16 17 19 20 22 23 24 24 25 25 25 26 25 22 20 20 19 19 17 16 18 18 14 13 13 13 13 14 13 12 11 11 12 15 13 12 13 14 11 10 16 16 14 17 16 16 16 14 14 15 16 17 17
18 18 19 20 21 21 22 22 22 22 22 22 21 20 19 19 18 17 16 16 15 16 15 16 16 15 16 15 11 11 14 14 14 16 16 16 16 18 21 22 22 24 24 24 24 23 24 25 24 23 21 18 20 18 12 14 19 18 15 15 14 14 15 15 14 13 12 14 16 15 13 14 16 13 12 17 17 15 18 17 17 17 16 15 14 14 16 17
19 18 19 20 20 21 22 22 22 22 23 23 22 21 21 20 20 19 18 17 17 17 16 17 17 18 19 14 12 14 14 15 16 16 17 16 16 18 20 21 23 23 24 25 24 21 22 24 24 23 23 22 21 19 15 13 17 18 17 16 16 16 14 14 14 14 14 15 16 16 14 13 16 16 15 18 17 17 18 18 18 18 18 17 15 15 15 15
20 20 19 19 20 20 21 21 21 21 22 23 22 22 22 21 21 20 20 19 18 18 17 18 18 19 21 17 14 15 14 15 16 14 16 16 16 17 18 21 22 23 24 24 24 23 23 23 24 23 24 25 22 19 18 17 18 18 18 18 18 17 13 12 14 14 16 16 16 18 13 10 13 16 18 18 17 18 19 19 19 19 19 19 17 16 15 16
21 21 21 20 20 20 21 21 21 21 21 22 22 22 22 22 22 22 21 20 20 19 19 19 18 18 20 18 16 14 13 13 13 13 15 16 16 13 15 19 21 23 24 23 23 22 23 22 24 26 23 24 26 23 18 18 21 21 20 20 18 17 14 12 14 15 17 16 17 19 14 8 10 16 19 18 18 19 19 19 19 19 20 20 18 17 17 17
20 21 21 21 21 21 21 21 21 20 20 21 20 21 22 22 22 22 21 21 21 20 21 21 19 19 19 18 17 14 13 12 11 12 13 15 16 13 15 18 19 21 22 23 23 22 24 25 26 27 25 25 27 26 22 22 23 22 22 21 17 18 17 14 14 16 17 17 17 19 17 10 9 16 18 17 18 19 18 19 20 20 21 21 20 18 19 19
19 20 20 21 21 22 22 21 21 21 20 20 20 20 20 21 21 21 21 22 22 22 21 20 20 18 13 13 16 10 10 12 8 10 12 14 16 16 17 16 15 19 20 20 23 23 24 26 26 25 27 28 28 29 29 26 23 22 22 20 18 19 19 17 16 18 20 18 17 19 19 13 9 15 17 16 18 18 18 18 19 20 21 22 22 20 21 21
19 19 19 20 21 22 22 22 22 21 20 20 20 19 19 21 21 20 22 22 22 21 18 18 21 17 6 6 8 7 13 16 10 9 11 11 15 16 17 15 14 18 19 19 22 24 23 24 26 28 31 33 32 33 32 28 23 21 21 20 19 20 19 18 16 18 21 20 18 20 20 16 13 15 16 16 17 18 18 17 18 20 21 22 22 22 23 23
19 20 20 19 20 21 22 22 22 22 20 19 20 19 19 21 18 18 24 22 19 20 19 20 24 21 14 9 7 8 16 20 18 14 12 14 15 15 17 17 16 18 20 20 21 22 24 26 29 33 33 32 33 32 30 29 25 22 22 21 21 20 18 18 17 18 20 21 20 19 20 19 17 16 16 16 16 17 18 18 18 20 21 23 23 23 23 24
20 21 20 20 20 21 22 22 21 21 21 19 19 18 19 21 18 18 25 24 19 20 21 23 26 25 21 18 14 14 18 20 22 18 14 16 15 15 19 20 20 22 23 21 19 20 25 29 32 33 31 30 31 31 30 30 28 25 23 22 22 21 19 17 18 19 20 21 20 19 20 21 20 18 18 17 17 18 18 18 19 19 20 22 23 24 24 24
22 21 21 21 21 22 22 22 21 21 20 20 19 19 19 19 20 21 25 27 22 20 22 22 24 26 22 21 21 21 23 24 24 21 17 17 17 17 20 22 23 23 23 22 21 22 27 32 31 29 29 29 29 30 31 31 30 28 25 24 23 22 20 18 17 20 22 21 19 19 21 22 21 20 19 18 19 19 18 19 19 19 20 21 23 24 24 25
23 22 22 22 21 22 22 22 22 21 20 20 19 19 20 18 20 22 23 28 23 18 21 21 21 24 21 21 23 25 28 27 25 23 20 20 20 19 20 23 24 23 23 26 27 26 29 32 30 28 28 30 30 31 32 32 32 31 27 25 24 23 22 19 16 19 21 20 18 18 21 21 21 22 21 20 20 20 19 19 19 20 21 22 22 23 24 26
23 23 23 22 22 23 23 22 22 21 20 20 19 19 20 19 19 21 23 28 27 20 18 17 19 22 20 21 24 28 28 25 24 22 22 24 22 20 21 23 24 24 25 27 29 29 27 26 26 28 28 30 33 31 32 33 32 32 30 27 24 23 23 19 15 16 17 18 18 18 19 21 22 23 24 23 21 21 21 21 21 21 22 21 22 23 23 24
24 24 23 23 22 22 24 23 21 21 20 19 19 18 18 19 18 19 22 23 25 21 16 14 17 19 22 24 25 25 24 24 25 21 23 27 23 22 23 22 24 26 27 27 29 30 28 22 23 29 30 30 33 33 33 33 32 32 32 30 26 23 23 22 17 17 17 20 23 21 17 17 23 25 24 24 23 24 23 23 23 23 23 24 23 23 24 24
25 25 24 23 23 22 23 23 21 21 20 19 19 17 17 17 15 17 19 18 20 20 18 15 14 16 22 25 23 21 20 24 26 21 23 26 23 24 23 22 24 25 25 25 26 29 28 23 23 28 32 31 32 35 34 32 32 33 31 31 29 25 23 24 21 20 20 21 23 24 19 16 20 24 25 24 24 25 25 24 25 24 25 26 26 25 25 25
26 25 24 23 23 23 21 22 22 20 20 19 17 16 15 13 13 13 13 13 14 13 15 17 15 15 18 20 23 22 15 17 21 22 24 24 22 26 25 23 24 23 23 23 26 28 27 27 26 27 31 33 34 36 35 33 33 32 29 28 30 29 27 25 24 22 21 20 21 25 25 20 19 22 23 25 25 25 26 25 24 25 26 26 25 26 27 26
26 26 26 23 24 24 22 22 22 19 20 20 17 16 14 11 11 9 7 8 5 7 12 18 17 17 16 18 24 24 14 12 16 18 22 22 21 26 27 25 23 22 22 25 27 25 24 29 31 28 30 33 35 36 34 33 34 32 27 26 28 30 29 29 27 23 22 21 22 26 26 20 19 22 21 23 27 27 27 27 26 25 25 25 24 25 27 26
26 27 27 24 24 25 23 23 23 19 19 19 18 15 12 11 9 7 8 8 6 8 13 14 14 16 17 19 23 24 17 13 12 13 19 22 22 27 27 25 23 21 23 26 27 23 21 27 30 29 31 33 32 32 32 33 32 30 27 25 26 27 28 31 30 26 24 22 23 26 26 18 17 22 24 23 27 28 27 26 26 25 24 26 27 26 27 27
27 27 27 25 23 24 23 24 24 21 19 18 17 14 12 10 8 9 11 9 8 10 14 16 14 14 18 20 22 25 22 16 13 13 18 20 22 27 24 22 22 22 23 26 28 25 20 21 27 30 31 31 29 28 31 34 31 28 27 28 29 28 29 29 30 30 23 20 24 28 29 23 16 20 26 26 26 26 24 24 23 24 25 26 26 25 26 28
28 27 28 26 24 23 23 24 23 21 19 17 16 14 12 11 12 13 12 8 9 11 14 16 15 15 20 21 20 24 24 20 18 17 19 20 22 27 24 21 23 24 24 26 29 28 24 21 25 31 29 27 28 29 30 32 32 30 28 29 30 28 25 24 29 31 20 14 23 29 31 29 22 20 24 26 26 24 24 24 22 22 24 24 22 18 19 26
29 28 27 27 25 23 22 24 23 20 19 17 14 14 13 13 17 22 15 6 7 12 15 14 17 19 22 22 20 21 23 22 22 21 22 23 24 30 30 26 26 26 25 27 26 26 30 28 24 25 28 29 29 30 31 31 33 33 30 31 29 22 18 17 20 22 18 18 25 27 28 30 28 26 25 23 24 24 24 25 23 23 24 23 19 14 12 20
29 29 27 27 27 23 22 24 23 20 20 17 15 16 15 14 19 24 23 14 7 8 10 13 19 20 21 23 21 20 21 22 23 23 23 25 25 29 33 29 27 26 24 24 24 24 27 30 29 26 27 31 32 32 33 32 34 36 35 35 30 18 12 12 13 15 17 22 27 27 24 25 26 28 27 25 24 22 23 26 24 22 22 21 19 19 17 18
28 29 28 27 27 25 22 23 24 22 19 17 18 18 20 23 22 20 23 25 18 9 6 11 17 20 22 23 22 21 22 21 22 24 24 26 26 28 32 32 30 28 24 22 24 25 22 24 33 34 28 29 35 37 34 31 32 36 37 37 34 26 18 14 13 14 16 20 25 27 23 21 23 23 24 26 26 22 20 23 24 21 20 18 17 21 22 18
26 28 28 27 27 26 23 23 24 23 21 20 20 23 29 31 25 20 22 24 23 19 13 11 15 19 22 23 22 23 24 22 22 25 26 27 29 28 30 33 34 32 28 23 22 24 23 22 27 32 29 27 34 37 34 30 30 32 34 37 37 34 29 23 19 22 23 20 20 25 25 25 26 22 18 20 24 25 22 21 24 23 21 19 17 20 21 20
24 26 27 27 28 27 24 23 24 24 23 21 23 31 39 34 23 20 19 18 21 22 18 16 18 21 22 23 24 25 25 23 22 24 27 28 29 29 28 29 33 34 32 27 21 20 22 22 22 27 30 29 30 33 35 35 30 28 33 41 39 35 33 28 23 25 26 18 18 26 27 28 29 26 22 20 20 23 25 24 25 25 23 21 19 20 20 20
24 24 24 26 28 27 24 23 23 24 24 24 30 38 38 32 26 23 19 15 17 20 21 22 22 23 24 23 24 26 26 24 23 24 25 27 28 30 29 27 29 34 35 29 24 20 19 19 20 25 30 31 28 28 33 38 34 28 32 38 38 33 34 32 22 20 20 14 16 28 30 28 26 23 24 27 25 23 24 25 26 26 23 22 21 22 22 22
25 24 23 26 29 25 23 23 23 25 25 27 37 42 35 29 28 27 24 21 17 17 22 25 22 22 24 24 23 25 27 27 25 25 24 24 26 27 30 28 27 32 34 31 26 21 18 18 18 23 28 28 27 26 29 36 40 36 30 29 33 32 33 34 24 17 17 12 12 23 30 30 29 24 22 26 29 28 27 28 28 26 24 23 22 21 22 23
26 23 19 24 28 22 20 22 22 25 27 31 38 39 34 31 29 26 26 25 23 20 23 25 23 21 23 25 24 24 27 28 27 27 25 23 23 24 28 29 27 28 32 33 30 23 18 18 17 19 23 23 26 29 31 34 39 42 36 30 33 34 33 36 32 24 19 13 11 18 23 25 29 29 25 23 26 29 30 31 30 27 25 24 23 21 20 21
26 22 18 24 29 24 21 21 22 26 30 34 37 33 29 30 30 30 28 26 27 25 25 25 24 24 23 24 25 25 26 28 28 28 26 24 23 21 24 28 27 27 29 31 32 26 20 18 17 18 22 25 28 33 35 34 35 41 44 38 33 32 33 34 35 35 28 16 11 12 15 22 29 28 26 25 24 25 27 30 32 29 27 24 22 22 22 21
24 22 18 22 26 24 22 21 23 27 30 33 36 33 30 27 26 28 29 30 31 29 27 25 25 26 25 24 25 25 25 27 29 29 27 26 25 20 20 25 26 26 28 30 32 30 24 19 18 19 23 28 32 33 33 33 32 35 41 43 37 31 30 26 24 35 39 27 19 14 12 21 27 26 26 26 24 22 22 25 29 29 26 24 21 21 21 23
23 20 14 15 19 20 22 23 22 25 28 32 33 31 30 29 27 27 27 28 32 33 31 29 28 28 27 26 25 25 26 25 25 28 28 26 26 22 18 22 25 25 27 29 30 30 27 22 19 21 23 25 26 27 29 30 32 32 34 41 43 36 33 27 19 28 36 32 32 28 19 21 24 21 21 22 24 25 23 22 25 26 23 21 20 20 20 23
23 23 19 19 22 21 23 26 24 24 28 30 31 30 29 28 28 28 27 27 28 30 31 33 32 30 30 29 25 24 27 26 23 26 27 24 24 23 17 19 24 25 25 27 27 28 28 25 23 22 22 23 22 24 28 28 30 34 34 37 41 42 40 33 24 27 32 33 35 27 19 25 28 22 18 17 20 25 25 24 25 25 23 22 21 21 17 18
25 26 22 19 21 22 22 25 24 24 26 27 28 31 31 30 30 28 27 27 27 26 28 30 31 30 30 30 28 26 26 25 24 25 26 25 24 23 19 17 22 26 25 24 25 28 30 28 25 20 16 19 20 20 25 30 31 34 36 36 37 42 45 39 32 31 30 32 35 25 18 26 31 28 26 21 18 22 25 27 28 28 26 24 23 22 19 19
25 24 19 14 17 21 22 23 22 23 25 26 28 29 28 30 32 30 28 27 26 26 28 28 27 28 29 30 31 31 29 26 24 23 25 26 24 23 22 19 20 23 24 24 24 25 28 29 28 24 15 13 17 17 22 29 31 32 34 36 36 39 43 42 39 36 29 28 34 33 27 26 27 28 31 28 22 21 21 23 26 27 28 27 25 23 20 21
21 19 14 12 15 20 21 21 22 24 23 23 26 28 28 27 27 28 29 30 29 28 28 28 27 27 29 31 32 33 33 32 28 23 24 26 24 23 23 22 21 22 24 27 25 22 23 27 31 31 26 21 20 20 20 23 26 29 31 34 37 37 38 38 39 41 36 29 33 37 32 28 27 27 29 31 28 23 21 20 20 21 24 27 28 26 21 21
19 18 14 13 15 20 22 20 20 23 22 18 18 20 24 25 24 23 25 28 30 30 30 28 27 27 29 30 32 32 32 33 32 30 26 25 24 23 24 26 25 25 27 28 24 20 20 25 30 32 31 29 26 23 21 22 26 29 28 31 34 36 37 39 40 41 39 31 31 35 33 32 35 32 28 30 31 29 27 25 22 21 22 22 23 24 24 27
17 18 15 15 17 19 21 21 20 23 24 20 16 15 16 18 19 20 21 21 23 27 30 30 29 29 28 27 29 31 31 31 33 33 31 27 25 23 24 28 29 28 28 27 24 22 21 23 25 28 30 31 31 28 26 25 27 29 28 28 31 34 37 40 40 39 39 36 33 33 32 34 38 39 36 32 29 30 30 29 28 26 24 22 21 20 22 26
16 18 17 17 19 20 21 22 24 26 25 22 19 18 16 16 17 19 19 20 21 20 25 29 30 30 28 27 28 28 29 31 31 32 32 31 28 25 24 27 29 28 28 28 26 24 24 23 23 24 26 28 30 32 31 30 29 29 30 30 31 33 35 38 39 38 40 41 38 34 31 32 34 37 40 40 35 30 27 28 29 29 28 26 24 23 22 22
15 17 18 19 20 21 21 21 23 26 25 23 21 19 18 18 19 19 19 21 21 18 17 20 22 24 25 27 30 30 28 27 27 27 29 29 29 29 27 25 26 28 28 29 29 28 28 27 23 23 25 25 26 29 31 32 32 31 32 33 32 33 33 37 40 40 40 41 39 37 36 35 33 30 33 39 42 38 31 26 26 29 30 28 27 26 25 23
18 18 19 20 22 23 22 20 20 22 24 25 24 21 20 20 19 19 22 26 24 19 19 20 17 19 20 19 24 30 27 24 23 23 25 28 29 28 29 27 25 26 29 30 30 29 29 27 24 24 26 27 27 27 28 31 33 35 37 36 35 34 34 35 37 38 39 39 37 39 41 39 35 31 29 30 37 42 41 35 29 27 26 26 25 26 25 24
20 18 15 18 22 22 22 21 19 20 22 23 22 21 22 21 18 16 20 27 28 21 18 20 20 19 15 9 11 18 19 20 24 23 19 23 27 24 23 26 26 25 28 30 31 31 28 26 26 25 25 27 27 26 29 29 27 31 39 40 38 37 36 37 36 35 37 38 37 39 40 37 33 33 33 31 32 37 43 44 41 36 33 28 25 27 27 25
Wind_Direction
288 289 290 290 290 290 291 293 296 297 296 292 287 284 280 277 276 274 276 279 284 287 291 294 294 296 292 289 283 270 261 255 247 243 242 237 236 240 240 239 239 240 242 242 243 246 249 253 256 261 266 259 290 277 233 260 261 250 290 257 251 282 107 122 114 98 119 124 130 140 137 136 137 136 148 140 140 154 144 152 168 151 143 161 186 184 171 173
284 284 285 286 286 287 288 288 291 293 296 296 294 291 286 283 280 278 278 279 282 285 288 291 294 296 292 291 287 280 271 260 252 248 246 241 236 236 235 235 235 235 236 238 239 242 246 249 249 253 253 239 253 240 229 263 280 229 252 239 240 13 84 120 113 107 131 130 132 143 142 139 144 148 135 133 150 158 149 163 164 149 158 174 185 175 176 179
283 282 282 281 282 283 284 285 287 288 291 294 296 296 294 290 286 283 282 281 282 285 287 290 293 295 296 291 289 292 282 270 267 257 246 241 239 235 231 232 232 230 231 232 233 236 239 242 243 243 240 229 227 221 225 256 265 233 233 220 194 249 58 129 120 117 130 132 140 144 145 144 148 153 141 143 158 158 160 171 165 165 173 180 182 171 178 182
282 282 281 280 280 279 280 282 282 284 286 288 292 294 296 295 294 291 287 286 285 286 288 289 292 295 296 292 292 298 295 296 272 252 246 241 240 235 229 227 228 227 226 227 227 229 231 233 239 237 228 228 223 221 224 239 257 243 230 237 212 210 30 153 145 135 133 141 149 147 151 153 152 156 149 152 161 161 173 178 174 182 184 184 183 173 175 183
281 281 280 279 279 278 278 278 280 281 282 284 286 288 292 295 296 296 294 293 292 291 291 289 291 293 295 294 289 293 315 25 255 253 256 245 237 232 227 223 223 224 221 222 223 224 226 227 234 232 224 228 226 226 227 228 243 238 240 261 250 239 281 141 167 161 140 149 157 154 155 156 158 161 154 159 169 170 180 180 177 191 192 188 187 177 175 183
280 280 279 278 278 277 277 277 278 278 280 280 281 284 286 290 292 294 295 296 298 299 297 294 292 289 291 289 284 282 233 192 254 263 258 243 234 227 224 220 217 219 218 218 218 220 222 222 228 229 226 229 230 229 228 225 231 236 245 261 247 238 254 121 167 177 163 166 169 164 160 159 163 168 164 165 166 156 174 174 175 192 190 182 185 183 180 180
280 280 279 278 277 277 276 276 277 277 278 278 278 280 281 284 287 290 292 294 298 300 302 300 297 293 288 282 278 270 242 226 268 265 251 236 230 224 222 218 214 214 215 215 214 217 219 220 225 228 229 230 232 233 233 230 228 236 247 246 235 235 235 228 212 192 192 192 181 172 170 170 167 174 172 171 168 147 163 169 174 190 181 173 179 181 183 178
280 279 279 278 277 277 276 276 276 277 277 277 277 277 278 280 282 284 286 290 294 297 300 299 299 299 289 283 274 266 263 265 266 259 249 236 229 223 220 217 214 212 213 215 213 216 218 220 223 224 226 229 233 233 236 238 229 233 245 243 235 231 229 241 240 211 211 207 189 180 181 182 173 177 175 174 179 159 159 166 175 189 179 173 177 176 180 176
279 278 278 276 276 276 276 276 276 277 277 277 276 276 276 276 277 280 281 285 289 292 294 294 297 296 291 286 278 273 269 256 255 256 251 242 233 224 220 217 217 214 213 214 211 212 214 217 221 221 225 230 236 236 236 240 233 228 233 239 237 236 237 241 239 222 221 213 194 189 186 185 175 175 177 176 181 165 159 167 176 190 178 171 175 174 177 179
279 278 276 275 275 274 275 275 275 276 276 276 276 276 275 274 275 275 277 280 282 287 288 289 290 288 290 283 278 277 265 255 255 258 253 246 238 228 222 218 218 216 214 214 212 211 212 215 218 220 228 233 237 240 237 236 238 231 228 239 237 240 240 233 239 228 220 213 196 192 188 185 180 182 181 179 184 171 164 173 178 183 179 173 175 175 177 181
279 278 276 275 274 273 273 273 274 275 275 276 276 276 276 274 273 273 275 276 278 282 282 284 285 283 284 279 275 266 259 257 256 256 252 247 241 231 225 221 219 218 216 215 214 214 213 213 214 219 230 234 237 243 242 237 242 243 238 245 239 239 239 230 237 229 218 214 197 193 195 189 186 191 187 181 186 177 170 177 178 180 184 181 179 177 178 183
280 279 277 276 274 273 272 271 272 273 273 274 274 275 275 274 274 273 272 273 275 277 278 281 280 280 278 275 272 256 257 260 254 253 253 247 242 234 228 224 220 220 219 217 216 215 214 212 211 218 224 230 234 238 246 238 236 243 242 245 243 237 237 232 232 226 219 208 193 192 198 194 193 198 190 184 187 177 174 180 180 184 189 189 188 183 183 184
284 282 279 277 276 274 272 271 270 270 271 271 272 274 274 274 274 272 272 272 273 273 275 277 277 278 276 275 277 263 262 266 256 251 249 244 241 236 230 225 222 222 221 219 217 217 217 214 212 217 220 226 231 231 248 242 230 237 239 242 245 236 231 229 224 220 215 202 191 193 201 200 202 206 192 186 189 180 179 184 182 185 190 194 199 196 191 188
288 286 284 282 279 276 275 272 270 269 269 269 270 271 272 273 272 272 272 271 271 271 272 274 275 277 274 275 279 269 264 267 262 252 245 241 235 234 232 227 224 223 222 221 216 213 219 219 213 216 221 226 230 234 246 244 228 230 233 236 240 237 230 217 213 210 202 196 192 196 209 212 205 203 193 188 190 185 184 188 187 187 191 196 202 206 203 198
290 288 288 286 284 282 278 276 274 271 270 269 269 269 269 270 271 271 270 269 269 269 270 271 272 276 278 280 277 270 266 264 262 249 238 234 229 231 232 227 224 223 223 223 218 214 216 217 214 217 224 224 227 236 243 238 228 225 228 230 228 235 231 201 199 201 194 193 193 198 215 222 198 190 189 190 190 188 188 190 191 192 194 199 204 208 212 211
289 289 288 288 287 285 283 281 278 275 273 272 270 270 268 268 269 269 269 269 267 267 269 269 270 273 278 281 279 277 276 268 261 248 235 229 223 223 231 225 222 224 222 222 222 217 214 210 212 217 219 220 222 229 236 233 226 220 225 230 222 223 220 194 192 198 194 193 195 201 216 226 189 180 185 190 190 189 192 193 194 196 196 202 210 211 215 220
287 287 287 287 287 286 285 285 283 281 278 276 274 273 271 270 268 267 267 266 266 266 265 266 268 271 274 273 274 285 284 269 259 250 236 227 217 206 222 223 216 222 221 221 222 218 213 209 210 214 215 218 219 219 226 227 220 214 218 229 228 219 211 198 197 201 198 195 198 204 216 226 185 176 183 188 190 191 194 196 196 199 199 205 214 213 217 224
287 286 285 285 285 284 284 285 285 284 283 282 280 277 276 275 271 269 267 265 264 262 263 269 266 267 282 272 262 270 260 248 252 253 242 232 223 211 214 215 211 218 216 217 222 218 216 213 211 214 215 216 215 213 218 221 218 214 213 219 228 226 213 202 198 200 199 198 201 205 213 219 181 173 184 187 191 194 196 199 200 202 203 207 214 214 218 227
289 287 285 284 283 282 282 283 284 284 285 286 284 283 281 278 277 277 270 262 260 260 263 270 258 245 260 282 255 220 217 231 249 261 250 236 230 220 208 201 203 213 207 209 219 215 211 210 210 214 214 213 213 213 216 219 220 221 219 216 223 229 221 207 198 196 198 202 205 206 211 213 191 180 188 190 193 198 199 200 202 204 206 209 214 215 218 227
290 289 288 286 283 282 281 281 282 282 284 286 286 288 286 282 286 284 274 268 263 257 249 252 254 242 229 243 261 235 233 249 263 260 246 237 232 216 204 197 197 207 203 202 214 211 204 207 210 213 213 211 213 214 216 220 224 228 227 223 223 229 227 214 205 196 196 206 210 209 212 214 207 195 193 196 196 200 202 202 203 205 208 211 215 217 220 227
288 288 288 288 287 283 282 281 281 281 282 284 285 287 285 285 286 279 277 279 271 261 249 242 251 251 236 231 238 238 241 255 264 258 241 235 228 208 204 201 196 206 207 201 207 205 203 212 216 215 214 213 214 216 217 221 226 231 232 229 226 228 231 222 208 197 195 207 213 211 214 216 215 207 199 202 202 202 204 205 206 206 209 213 216 219 221 226
287 286 286 287 288 285 283 282 281 280 281 282 284 284 282 283 283 279 280 281 272 263 260 247 244 249 243 233 230 231 234 240 248 250 239 228 219 207 206 205 201 207 207 201 202 201 206 217 218 215 216 216 217 217 219 222 226 230 232 230 228 225 228 229 213 195 191 205 214 213 216 217 215 214 208 207 208 209 208 208 209 209 210 213 217 220 221 225
288 285 284 284 286 286 284 282 281 280 280 280 281 282 282 282 283 284 284 284 277 263 261 257 246 246 243 238 235 233 236 238 240 242 238 228 219 210 206 206 208 209 208 205 204 203 209 218 217 213 215 216 218 218 218 222 225 228 230 229 230 225 222 227 213 188 185 200 213 215 220 220 216 217 216 213 213 213 213 213 214 214 215 215 217 222 224 227
289 286 283 281 283 285 283 280 280 279 279 280 278 279 282 283 284 286 287 286 285 277 267 258 247 244 238 232 234 235 237 239 238 235 233 231 222 212 208 208 211 212 212 210 209 213 217 219 215 211 214 216 218 218 217 220 222 226 228 226 228 225 222 223 203 184 193 208 217 220 224 226 220 217 217 216 216 216 217 217 218 219 220 220 218 221 226 230
289 286 283 280 279 282 283 281 279 278 278 278 278 278 280 284 287 288 291 293 291 287 280 259 242 240 233 226 228 233 235 235 235 227 227 235 224 208 209 210 213 216 215 213 214 221 224 219 212 210 213 215 216 219 217 217 220 224 226 225 227 225 225 227 206 189 208 218 217 219 225 230 223 220 219 217 217 218 218 219 221 222 222 223 223 221 225 229
289 286 284 281 276 277 281 281 277 276 276 275 276 278 279 284 287 290 296 296 286 279 272 255 238 235 232 228 223 223 233 238 236 222 218 233 222 202 208 211 214 219 217 217 219 224 225 218 213 212 213 214 215 219 217 216 221 224 222 222 227 229 229 232 219 205 216 221 216 216 224 233 226 221 220 219 219 218 220 221 222 224 225 228 231 229 228 230
290 288 284 282 277 273 275 279 277 274 273 272 273 276 278 282 284 293 303 290 271 256 245 234 227 229 224 224 218 211 222 231 228 220 214 226 217 200 208 212 213 219 215 217 222 223 221 216 215 213 211 213 214 217 217 215 221 225 222 219 223 229 233 236 231 220 221 224 218 217 225 235 233 225 221 220 223 220 221 223 221 224 229 230 234 235 235 235
289 288 285 283 279 275 271 274 275 272 271 270 271 274 275 275 276 283 291 279 238 186 223 230 227 227 213 211 211 203 207 204 208 222 217 221 214 199 209 214 213 221 213 215 224 221 218 217 215 211 210 213 215 216 215 214 221 225 223 222 222 226 231 237 239 229 222 225 223 219 222 233 237 232 224 220 223 222 221 222 221 224 230 234 239 239 237 240
286 285 285 282 279 277 273 272 273 270 268 267 268 269 267 266 264 256 255 257 224 206 231 227 219 223 209 203 199 194 206 206 201 221 210 211 210 197 210 217 213 223 218 218 227 224 221 220 216 213 214 217 217 214 212 214 220 223 224 228 228 225 227 233 239 235 226 227 229 224 221 229 240 233 227 223 223 222 221 221 222 224 228 232 239 240 235 239
284 282 282 279 276 275 272 271 273 271 267 262 260 259 256 250 233 234 240 231 233 233 223 215 215 212 199 196 196 196 208 208 202 211 203 207 206 196 209 220 216 226 225 223 229 228 227 221 215 218 219 218 217 215 215 217 220 223 224 230 233 230 227 229 235 237 235 227 227 229 225 228 240 233 225 223 224 223 221 221 221 224 229 232 235 236 232 235
283 281 280 278 273 270 269 268 267 268 265 257 252 248 243 235 221 231 234 222 241 226 201 211 215 199 194 195 199 204 208 209 207 206 197 199 201 196 205 214 214 221 224 224 226 226 227 221 214 220 220 216 215 218 219 218 219 222 223 227 232 233 231 233 232 232 237 231 225 229 227 228 235 233 225 223 226 226 221 222 222 222 230 237 236 234 228 229
282 280 279 277 272 267 266 264 261 261 260 252 244 234 225 225 226 228 227 231 243 210 195 206 200 193 197 199 205 207 205 209 208 203 198 196 198 199 202 205 203 208 216 219 219 219 223 225 219 219 220 216 214 217 218 214 215 217 218 221 225 225 226 231 228 225 232 236 231 228 226 230 234 234 231 228 227 226 220 221 223 222 225 233 234 231 226 224
279 279 278 277 273 266 261 261 258 254 253 245 233 222 213 225 231 223 220 223 217 191 199 209 200 197 201 205 212 208 202 209 207 203 204 202 203 204 206 208 204 206 214 215 213 214 219 225 222 218 218 215 212 214 213 208 209 212 212 216 221 220 218 222 223 227 230 232 233 232 232 235 235 234 233 230 226 225 221 218 220 223 223 224 226 228 233 225
277 278 277 275 274 268 258 256 255 251 248 237 223 212 212 228 233 222 221 225 225 228 228 213 204 204 206 209 213 207 204 212 208 205 207 204 207 208 207 211 210 211 219 218 215 215 215 220 218 214 215 213 211 213 213 209 210 212 212 215 221 220 220 222 218 222 231 233 233 231 231 234 234 234 232 227 224 223 221 216 216 221 223 224 223 224 236 236
277 277 278 275 273 269 259 253 251 249 245 232 216 212 218 227 229 224 228 228 229 239 242 222 209 208 212 213 216 215 214 217 213 209 210 209 211 211 208 211 210 209 215 220 217 216 221 226 219 213 213 212 212 212 213 214 216 213 211 217 220 217 220 232 233 226 230 236 233 229 231 233 235 237 228 222 224 223 222 219 217 219 223 229 225 221 237 250
279 277 278 277 273 269 260 252 247 245 241 226 215 220 225 227 225 223 229 231 231 236 236 227 216 215 219 217 218 220 216 219 217 211 214 216 216 216 213 211 210 207 209 215 216 214 221 230 221 212 212 212 214 212 210 214 216 208 209 217 219 216 220 233 240 234 232 235 233 232 235 233 232 233 228 223 223 220 222 223 221 224 227 229 226 222 238 256
283 276 276 277 273 269 263 253 245 241 236 222 220 228 231 230 230 227 229 234 235 236 236 232 222 219 222 220 217 214 210 215 217 214 217 219 219 219 216 213 211 208 208 212 219 219 224 232 220 210 212 213 213 215 213 215 217 212 212 218 219 218 224 230 235 235 232 237 234 231 236 235 228 228 225 225 225 219 219 222 221 226 230 229 227 224 236 256
287 279 278 275 268 267 265 255 246 241 234 225 228 234 235 235 234 231 233 238 240 240 239 237 229 222 223 224 220 212 207 209 213 216 219 220 220 218 214 214 211 209 209 211 220 223 224 235 226 211 215 213 207 211 216 216 219 221 221 218 214 216 221 222 226 232 230 235 234 231 238 237 231 228 220 221 227 221 217 220 220 225 229 226 224 222 231 243
292 287 284 275 267 264 261 253 244 239 232 229 235 238 239 238 235 232 233 238 242 242 240 237 234 231 229 228 226 219 211 210 212 217 219 221 224 218 212 213 211 208 208 209 217 222 218 226 231 214 207 205 201 207 215 214 214 220 227 225 217 219 221 220 223 230 233 238 233 232 238 235 233 233 224 222 228 223 220 223 222 227 231 225 221 222 228 235
293 289 281 272 269 266 262 254 241 234 231 232 238 241 244 245 241 236 234 236 239 239 238 237 236 237 235 232 231 227 220 217 216 217 218 219 222 217 209 209 209 207 205 206 212 220 216 215 226 216 197 197 206 208 212 213 208 210 219 223 219 218 221 223 225 225 227 237 238 232 238 235 233 234 230 227 227 224 224 224 222 223 228 228 225 222 223 233
292 290 283 274 272 267 264 260 244 237 238 239 242 244 245 247 248 244 239 237 238 238 237 238 237 238 239 237 234 231 229 226 221 217 219 219 218 213 205 206 208 204 202 204 209 214 215 210 218 217 199 201 214 215 213 217 214 210 213 219 221 218 217 221 224 222 224 232 238 239 244 235 230 231 231 226 224 226 225 220 216 213 217 224 224 221 220 228
286 281 269 263 269 267 265 263 253 244 243 243 244 247 247 248 249 247 243 240 239 238 238 239 239 239 239 239 236 232 232 233 224 216 220 222 217 214 210 206 208 205 201 205 208 209 213 214 216 220 215 212 217 219 218 219 221 221 217 217 221 223 220 219 222 222 224 229 233 237 246 238 227 227 229 222 220 226 223 213 208 206 210 215 220 228 224 223
282 271 257 250 260 266 264 263 257 248 247 248 248 249 249 249 249 247 243 241 238 236 235 236 238 238 237 238 239 235 232 234 228 218 221 225 218 214 213 205 206 207 205 207 208 205 208 217 219 219 227 229 222 219 222 220 220 225 224 218 219 222 224 226 228 224 225 228 228 230 240 235 228 230 230 220 218 223 220 212 207 207 213 218 228 236 223 215
282 279 274 264 261 258 250 251 255 253 250 252 252 250 247 246 246 245 241 239 237 235 235 236 235 236 235 235 237 235 232 233 230 221 220 224 221 215 212 205 202 204 206 207 205 201 203 212 217 215 222 227 220 214 215 214 214 219 223 220 217 220 223 226 229 229 229 230 228 229 238 231 228 233 234 226 219 219 220 219 217 218 223 226 234 238 230 231
288 287 286 278 268 261 249 242 251 259 258 256 253 249 247 247 244 242 242 241 239 237 239 240 237 236 235 233 234 234 232 232 231 225 222 224 223 216 210 206 200 201 208 211 205 203 206 207 210 215 217 213 212 211 208 208 210 215 222 222 220 221 222 221 225 230 233 230 228 233 239 233 226 228 230 230 223 214 213 217 220 223 226 228 233 238 239 241
291 285 280 274 263 258 255 248 248 256 260 265 263 251 246 248 245 241 241 243 242 241 242 243 239 237 234 230 231 232 231 232 232 229 224 222 221 216 212 212 210 205 211 215 208 207 217 214 210 216 222 220 218 218 213 210 212 215 219 223 224 224 221 219 223 229 232 230 230 235 239 239 234 227 224 226 222 214 211 214 221 227 228 227 230 234 238 239
287 279 271 269 257 243 244 250 255 253 249 256 268 257 247 249 248 245 244 243 244 242 241 242 239 236 233 228 228 231 229 229 230 229 227 224 223 222 219 219 219 216 216 216 213 211 221 223 217 215 222 227 228 228 221 218 222 223 220 221 224 225 223 222 224 228 231 232 234 234 233 237 240 236 231 225 219 218 221 225 233 237 232 226 226 231 236 240
280 276 263 259 264 252 244 250 257 253 242 238 248 254 256 257 254 251 250 249 248 240 236 238 238 235 235 229 227 229 227 226 227 227 227 227 226 226 225 220 219 220 217 215 217 215 218 225 221 215 220 226 232 238 234 228 231 232 227 223 224 225 226 227 227 228 229 232 237 236 231 232 236 237 237 234 228 224 225 231 237 233 226 223 226 232 236 244
273 273 264 257 262 259 253 255 254 250 244 242 246 251 258 265 264 259 259 265 269 252 234 236 236 235 238 235 230 228 225 223 225 225 224 227 226 224 225 218 212 215 215 212 215 214 216 224 221 219 227 228 229 236 238 237 238 235 231 230 227 226 228 230 232 232 231 234 239 239 236 235 234 234 234 235 237 235 229 231 233 227 224 226 231 233 233 240
270 270 267 264 262 259 259 263 260 256 254 252 254 256 256 262 266 264 261 265 269 260 251 255 247 234 232 234 233 231 226 223 227 226 223 223 221 221 224 220 210 209 211 212 213 212 216 225 223 225 236 237 231 233 235 237 239 237 235 233 231 230 229 230 232 233 234 236 238 239 240 238 236 235 233 232 235 238 236 230 225 223 225 228 232 235 235 237
267 267 267 268 267 266 266 266 264 265 262 254 252 255 256 258 260 259 255 249 244 250 270 278 265 238 225 225 232 230 228 231 234 233 229 225 219 218 222 222 217 213 210 209 212 210 213 221 223 224 235 238 234 235 237 237 238 240 239 236 234 233 232 231 231 231 233 236 237 238 240 239 236 235 234 231 231 234 237 234 228 225 225 227 231 235 238 241
266 265 267 270 270 269 267 264 262 261 259 255 251 249 251 254 254 259 261 247 234 240 268 272 264 250 228 224 253 239 227 232 230 225 229 226 217 215 219 220 222 224 217 210 210 210 210 214 217 218 228 235 232 234 239 240 240 239 236 234 234 234 234 234 233 232 232 233 235 237 239 240 238 235 235 234 229 230 233 234 235 235 230 230 237 239 239 241
Height
3173 3173 3172 3171 3170 3169 3169 3168 3167 3166 3165 3164 3164 3163 3163 3163 3163 3162 3162 3162 3161 3160 3159 3159 3158 3158 3157 3156 3155 3155 3155 3156 3156 3157 3158 3159 3160 3161 3163 3165 3166 3167 3169 3170 3172 3173 3174 3175 3176 3177 3177 3178 3178 3180 3180 3178 3178 3179 3179 3179 3178 3177 3175 3176 3176 3176 3176 3177 3178 3178 3179 3179 3179 3180 3179 3180 3182 3181 3182 3183 3183 3184 3185 3185 3184 3184 3186 3187
3172 3171 3170 3170 3169 3168 3167 3166 3166 3165 3164 3163 3163 3162 3162 3161 3161 3161 3161 3160 3160 3159 3158 3157 3157 3156 3156 3155 3154 3153 3154 3154 3154 3155 3156 3156 3158 3159 3161 3162 3164 3165 3167 3169 3171 3172 3173 3174 3175 3176 3177 3179 3180 3181 3181 3178 3178 3179 3179 3179 3177 3177 3176 3176 3177 3177 3177 3177 3178 3179 3179 3180 3180 3180 3179 3181 3183 3182 3183 3183 3183 3184 3185 3184 3184 3184 3186 3188
3170 3169 3169 3168 3167 3167 3166 3165 3164 3164 3163 3162 3162 3161 3161 3160 3160 3159 3159 3159 3158 3158 3157 3156 3156 3155 3155 3154 3153 3152 3152 3153 3153 3153 3153 3154 3156 3157 3159 3160 3162 3163 3165 3168 3169 3171 3172 3173 3174 3176 3177 3179 3181 3181 3180 3178 3178 3178 3180 3180 3177 3177 3177 3177 3177 3177 3178 3178 3178 3179 3180 3180 3180 3180 3180 3182 3183 3183 3184 3184 3184 3184 3184 3184 3184 3185 3186 3188
3168 3167 3167 3166 3166 3165 3164 3164 3163 3162 3162 3161 3161 3160 3159 3159 3158 3158 3157 3157 3157 3156 3156 3155 3154 3154 3153 3153 3152 3152 3151 3153 3152 3150 3151 3152 3154 3155 3157 3159 3160 3162 3164 3166 3168 3169 3171 3172 3173 3175 3177 3179 3181 3181 3180 3178 3178 3178 3180 3179 3176 3177 3178 3177 3178 3178 3178 3178 3178 3179 3180 3180 3180 3181 3181 3183 3183 3184 3185 3184 3184 3183 3183 3183 3184 3185 3186 3188
3166 3166 3165 3165 3164 3163 3163 3162 3161 3161 3160 3160 3159 3159 3158 3158 3157 3157 3156 3156 3155 3155 3154 3154 3153 3153 3152 3152 3151 3151 3151 3152 3150 3147 3149 3151 3151 3153 3155 3157 3158 3160 3162 3164 3166 3168 3170 3171 3173 3174 3176 3178 3180 3180 3180 3179 3178 3178 3178 3177 3176 3178 3178 3177 3178 3178 3178 3178 3178 3179 3180 3180 3180 3181 3181 3183 3184 3184 3185 3184 3184 3183 3183 3184 3184 3186 3187 3188
3164 3164 3163 3163 3162 3161 3161 3160 3160 3159 3159 3158 3158 3157 3157 3156 3156 3155 3155 3154 3154 3153 3153 3152 3152 3151 3151 3151 3150 3150 3150 3151 3148 3147 3148 3148 3149 3151 3153 3155 3157 3158 3160 3162 3164 3166 3168 3170 3171 3173 3174 3176 3178 3179 3179 3179 3179 3178 3177 3176 3176 3178 3177 3177 3178 3178 3178 3178 3179 3179 3180 3180 3181 3181 3182 3183 3184 3184 3185 3184 3185 3183 3183 3184 3185 3186 3187 3189
3162 3162 3161 3161 3160 3160 3159 3158 3158 3157 3157 3156 3156 3156 3155 3155 3155 3154 3153 3153 3152 3152 3152 3151 3150 3150 3150 3150 3149 3149 3149 3149 3148 3146 3146 3147 3148 3149 3151 3153 3155 3156 3158 3160 3162 3164 3167 3169 3170 3172 3174 3176 3177 3177 3178 3178 3178 3178 3177 3177 3177 3177 3177 3177 3177 3177 3178 3178 3178 3179 3179 3180 3181 3181 3182 3183 3183 3184 3185 3184 3185 3183 3183 3184 3185 3186 3187 3189
3160 3160 3159 3159 3158 3158 3157 3156 3156 3156 3155 3155 3155 3154 3154 3154 3153 3153 3152 3151 3151 3151 3150 3150 3149 3149 3149 3148 3148 3148 3148 3149 3146 3144 3145 3146 3146 3147 3149 3151 3153 3155 3157 3159 3161 3163 3166 3167 3169 3172 3174 3175 3176 3176 3177 3177 3177 3177 3176 3177 3177 3177 3177 3177 3177 3177 3177 3178 3178 3178 3179 3180 3180 3181 3182 3183 3183 3183 3185 3185 3184 3183 3183 3184 3185 3186 3187 3189
3158 3158 3157 3157 3156 3155 3155 3154 3154 3154 3153 3153 3153 3153 3152 3152 3152 3151 3151 3150 3150 3149 3149 3148 3148 3148 3147 3147 3147 3147 3147 3147 3143 3142 3144 3145 3145 3146 3147 3149 3151 3153 3155 3157 3160 3162 3163 3165 3168 3171 3173 3175 3175 3175 3176 3176 3174 3174 3175 3175 3176 3176 3176 3176 3176 3176 3176 3177 3178 3178 3179 3179 3180 3181 3181 3183 3182 3182 3184 3185 3184 3183 3184 3184 3185 3186 3187 3188
3156 3155 3155 3154 3154 3153 3153 3152 3152 3151 3151 3151 3151 3151 3151 3150 3150 3150 3149 3149 3148 3148 3147 3147 3147 3146 3146 3146 3145 3146 3145 3144 3142 3142 3142 3143 3144 3145 3146 3147 3149 3151 3153 3155 3158 3159 3161 3164 3167 3170 3172 3173 3174 3174 3174 3174 3172 3172 3173 3174 3174 3174 3174 3174 3175 3175 3176 3176 3177 3178 3179 3179 3180 3180 3181 3182 3182 3182 3184 3184 3183 3183 3184 3184 3185 3186 3187 3188
3153 3153 3152 3152 3152 3151 3151 3150 3150 3149 3149 3149 3149 3149 3149 3149 3148 3148 3148 3147 3147 3146 3146 3145 3145 3144 3144 3144 3144 3144 3143 3142 3142 3141 3141 3141 3143 3144 3145 3146 3148 3150 3152 3154 3156 3158 3160 3163 3166 3169 3170 3171 3172 3173 3173 3172 3172 3172 3173 3173 3172 3173 3173 3173 3174 3174 3175 3175 3176 3177 3178 3179 3179 3179 3180 3181 3180 3181 3183 3183 3183 3184 3184 3185 3185 3186 3187 3188
3151 3151 3150 3150 3149 3149 3148 3148 3148 3147 3147 3146 3146 3146 3146 3146 3146 3146 3146 3146 3145 3145 3144 3143 3143 3142 3142 3142 3142 3142 3141 3141 3141 3140 3140 3140 3141 3143 3144 3145 3147 3148 3150 3152 3155 3157 3159 3162 3165 3167 3168 3170 3171 3172 3171 3171 3172 3172 3172 3172 3171 3171 3171 3172 3172 3173 3174 3174 3174 3176 3177 3178 3178 3178 3179 3180 3179 3180 3182 3183 3183 3183 3184 3184 3185 3185 3186 3187
3149 3148 3148 3147 3147 3146 3146 3146 3146 3145 3144 3144 3144 3144 3144 3144 3144 3144 3144 3144 3143 3143 3142 3142 3141 3140 3140 3139 3140 3139 3139 3139 3139 3138 3138 3139 3140 3141 3142 3144 3145 3147 3148 3150 3153 3156 3158 3160 3162 3164 3167 3169 3170 3170 3169 3169 3170 3171 3171 3171 3170 3169 3169 3170 3171 3172 3173 3172 3173 3175 3175 3176 3177 3178 3178 3178 3178 3180 3181 3182 3183 3183 3183 3184 3184 3185 3186 3186
3146 3146 3145 3145 3144 3144 3143 3143 3143 3143 3142 3142 3142 3141 3141 3141 3141 3141 3142 3141 3141 3141 3141 3140 3139 3138 3137 3137 3138 3137 3137 3137 3137 3137 3137 3137 3138 3139 3140 3142 3144 3145 3147 3149 3151 3154 3156 3158 3160 3163 3165 3167 3168 3169 3168 3168 3169 3169 3169 3169 3168 3166 3165 3167 3169 3170 3171 3170 3172 3174 3173 3174 3174 3176 3177 3177 3177 3179 3180 3181 3182 3183 3183 3183 3184 3184 3185 3186
3143 3143 3142 3142 3141 3141 3141 3140 3141 3140 3140 3139 3139 3139 3139 3139 3138 3139 3139 3139 3139 3139 3138 3138 3137 3136 3134 3135 3135 3134 3135 3135 3134 3135 3135 3136 3136 3137 3138 3140 3142 3144 3145 3147 3149 3151 3154 3156 3159 3161 3162 3164 3166 3167 3167 3167 3167 3167 3167 3165 3165 3164 3163 3165 3167 3168 3170 3169 3171 3173 3172 3172 3172 3174 3176 3176 3177 3178 3179 3180 3181 3182 3183 3183 3183 3183 3184 3185
3141 3140 3140 3139 3139 3138 3138 3137 3137 3137 3137 3137 3137 3137 3136 3136 3136 3136 3136 3136 3136 3136 3136 3135 3135 3135 3133 3132 3132 3132 3132 3132 3132 3133 3133 3134 3135 3137 3137 3138 3140 3142 3144 3146 3148 3150 3152 3155 3157 3158 3161 3163 3164 3165 3166 3165 3164 3164 3164 3161 3161 3162 3163 3164 3166 3167 3168 3169 3170 3171 3171 3171 3171 3172 3174 3175 3176 3177 3178 3179 3180 3181 3182 3182 3182 3183 3183 3184
3139 3138 3137 3137 3136 3135 3135 3135 3134 3134 3135 3134 3134 3134 3134 3134 3133 3133 3133 3133 3133 3134 3133 3133 3133 3133 3132 3130 3130 3130 3130 3130 3131 3131 3132 3133 3134 3136 3136 3136 3139 3140 3142 3144 3146 3148 3150 3152 3154 3156 3158 3160 3162 3164 3164 3161 3159 3160 3161 3159 3159 3159 3161 3163 3164 3166 3167 3168 3169 3170 3170 3170 3170 3171 3173 3174 3175 3176 3177 3178 3179 3180 3181 3181 3181 3181 3182 3182
3137 3136 3135 3135 3134 3133 3132 3132 3132 3132 3132 3131 3131 3131 3131 3131 3130 3130 3130 3130 3130 3130 3131 3131 3131 3131 3130 3128 3128 3130 3130 3128 3129 3130 3130 3131 3132 3133 3134 3136 3138 3139 3141 3142 3143 3146 3148 3150 3152 3154 3155 3156 3157 3159 3158 3156 3156 3156 3157 3158 3158 3157 3157 3159 3161 3164 3165 3167 3168 3169 3169 3169 3170 3171 3172 3173 3174 3175 3176 3177 3178 3179 3180 3180 3179 3180 3181 3181
3135 3134 3133 3133 3132 3131 3130 3130 3129 3129 3129 3129 3128 3129 3129 3128 3128 3128 3127 3127 3127 3127 3129 3128 3127 3129 3129 3127 3127 3129 3128 3127 3127 3129 3129 3130 3131 3132 3133 3135 3137 3138 3140 3141 3142 3143 3146 3148 3150 3149 3149 3150 3152 3154 3154 3155 3155 3154 3154 3155 3156 3155 3154 3155 3158 3161 3164 3165 3166 3167 3168 3168 3169 3170 3171 3172 3173 3174 3175 3176 3177 3178 3178 3178 3178 3179 3179 3179
3132 3131 3131 3130 3130 3129 3128 3128 3127 3127 3127 3127 3126 3126 3126 3125 3126 3125 3122 3123 3124 3124 3125 3124 3122 3124 3126 3126 3128 3128 3126 3124 3125 3127 3128 3129 3129 3131 3132 3134 3136 3137 3138 3140 3140 3141 3144 3145 3144 3143 3144 3148 3150 3152 3154 3155 3155 3154 3153 3152 3153 3153 3151 3152 3156 3158 3162 3163 3164 3165 3166 3167 3168 3169 3170 3171 3172 3172 3173 3174 3175 3176 3177 3177 3177 3177 3177 3178
3130 3129 3128 3128 3127 3126 3126 3125 3125 3125 3125 3125 3125 3124 3124 3123 3124 3123 3119 3119 3120 3120 3120 3120 3120 3120 3122 3124 3126 3126 3125 3123 3123 3124 3126 3127 3127 3130 3131 3132 3135 3135 3135 3139 3140 3140 3141 3140 3139 3141 3144 3148 3150 3152 3154 3154 3154 3153 3152 3150 3150 3150 3149 3149 3152 3155 3159 3161 3162 3164 3165 3165 3166 3167 3168 3169 3170 3170 3171 3172 3173 3174 3175 3175 3175 3176 3176 3177
3128 3127 3126 3125 3125 3124 3123 3123 3123 3123 3123 3123 3122 3122 3122 3121 3121 3120 3118 3115 3115 3116 3115 3116 3117 3116 3118 3120 3121 3122 3122 3121 3121 3122 3124 3125 3125 3128 3129 3130 3132 3133 3134 3137 3138 3138 3137 3135 3136 3141 3144 3147 3149 3150 3152 3152 3152 3151 3150 3149 3147 3148 3148 3148 3149 3152 3156 3159 3161 3162 3163 3163 3164 3165 3166 3167 3168 3168 3169 3170 3171 3172 3173 3173 3174 3174 3174 3175
3125 3124 3123 3123 3122 3121 3120 3120 3120 3120 3120 3120 3120 3120 3119 3120 3119 3118 3117 3112 3110 3112 3112 3111 3112 3112 3114 3116 3117 3117 3117 3118 3119 3120 3121 3122 3123 3126 3127 3128 3129 3131 3133 3133 3134 3133 3132 3131 3135 3140 3143 3144 3146 3147 3149 3150 3150 3149 3148 3147 3146 3146 3146 3146 3148 3150 3154 3157 3159 3161 3161 3161 3162 3163 3164 3165 3165 3166 3167 3168 3169 3170 3170 3171 3172 3172 3172 3172
3122 3122 3121 3120 3120 3119 3117 3118 3118 3118 3118 3118 3118 3118 3117 3117 3117 3116 3115 3111 3106 3106 3108 3108 3108 3108 3111 3112 3113 3113 3114 3115 3116 3118 3119 3118 3121 3123 3125 3127 3128 3129 3130 3130 3131 3130 3129 3131 3135 3138 3140 3142 3143 3144 3146 3147 3147 3147 3146 3145 3145 3145 3144 3145 3147 3151 3154 3156 3158 3160 3160 3159 3159 3160 3161 3162 3163 3164 3165 3166 3167 3168 3168 3169 3170 3170 3170 3170
3119 3118 3118 3118 3118 3117 3115 3115 3115 3115 3116 3115 3115 3115 3115 3115 3115 3114 3113 3110 3106 3103 3104 3105 3104 3105 3106 3107 3108 3109 3111 3112 3112 3116 3116 3114 3118 3121 3123 3125 3125 3126 3126 3128 3129 3128 3128 3131 3133 3135 3136 3138 3140 3140 3142 3143 3144 3144 3143 3144 3144 3144 3144 3144 3146 3150 3153 3154 3155 3159 3158 3155 3156 3157 3157 3159 3160 3161 3162 3163 3164 3165 3166 3166 3167 3168 3168 3168
3115 3115 3115 3115 3114 3114 3113 3112 3113 3113 3113 3113 3113 3113 3114 3113 3114 3114 3112 3110 3105 3101 3100 3101 3102 3102 3101 3103 3105 3108 3110 3108 3108 3112 3113 3112 3115 3119 3121 3122 3122 3123 3125 3127 3127 3125 3126 3129 3130 3131 3133 3135 3137 3137 3138 3141 3141 3139 3140 3143 3143 3143 3143 3142 3143 3146 3149 3149 3152 3156 3154 3152 3153 3154 3155 3157 3157 3158 3159 3160 3161 3162 3163 3164 3164 3165 3165 3165
3112 3111 3112 3112 3111 3111 3111 3109 3110 3111 3111 3111 3111 3111 3112 3112 3113 3113 3112 3109 3102 3097 3097 3098 3099 3098 3099 3100 3102 3106 3107 3104 3104 3107 3109 3109 3112 3115 3117 3119 3119 3119 3123 3125 3122 3120 3122 3125 3126 3127 3130 3131 3132 3132 3134 3138 3138 3136 3138 3142 3142 3143 3142 3141 3141 3142 3145 3148 3150 3152 3152 3151 3151 3150 3152 3154 3154 3155 3156 3156 3158 3159 3160 3160 3161 3162 3162 3162
3109 3108 3108 3109 3108 3107 3108 3107 3107 3108 3108 3108 3109 3110 3110 3111 3112 3112 3113 3109 3098 3093 3093 3093 3095 3095 3096 3098 3098 3103 3103 3101 3103 3104 3105 3107 3109 3112 3113 3115 3117 3117 3120 3120 3117 3117 3120 3121 3123 3124 3126 3126 3126 3128 3132 3135 3135 3135 3138 3139 3139 3141 3142 3141 3139 3139 3143 3146 3146 3148 3150 3149 3147 3148 3149 3150 3150 3151 3152 3153 3155 3156 3157 3157 3158 3159 3159 3159
3105 3103 3104 3106 3105 3104 3105 3104 3104 3105 3105 3106 3107 3108 3108 3110 3110 3111 3113 3107 3094 3091 3090 3090 3092 3093 3094 3095 3096 3100 3100 3100 3102 3101 3102 3104 3105 3109 3110 3112 3115 3116 3117 3117 3115 3116 3118 3118 3121 3123 3122 3122 3124 3127 3130 3132 3132 3135 3138 3138 3138 3138 3139 3140 3137 3136 3140 3141 3141 3145 3147 3146 3144 3144 3146 3146 3145 3146 3148 3150 3152 3153 3154 3155 3156 3157 3157 3157
3100 3099 3099 3101 3102 3101 3101 3101 3101 3101 3103 3104 3105 3106 3107 3108 3109 3110 3109 3100 3091 3089 3087 3086 3090 3090 3091 3093 3095 3097 3098 3099 3100 3098 3100 3101 3102 3106 3108 3110 3113 3114 3114 3114 3113 3114 3115 3117 3119 3119 3118 3120 3124 3126 3128 3130 3132 3135 3137 3137 3136 3134 3135 3136 3134 3136 3134 3132 3136 3141 3143 3143 3140 3139 3141 3141 3141 3142 3145 3147 3149 3150 3150 3151 3152 3154 3156 3156
3096 3095 3094 3096 3098 3098 3098 3098 3097 3098 3100 3100 3102 3104 3104 3106 3108 3106 3099 3092 3089 3087 3083 3084 3087 3088 3089 3091 3093 3094 3095 3098 3098 3096 3097 3099 3100 3102 3105 3107 3108 3110 3111 3110 3110 3112 3114 3113 3114 3114 3116 3119 3122 3123 3125 3128 3131 3133 3134 3135 3133 3131 3132 3132 3132 3133 3127 3123 3131 3137 3139 3139 3134 3133 3136 3137 3138 3140 3142 3144 3146 3147 3147 3148 3149 3150 3152 3154
3092 3091 3091 3091 3092 3094 3095 3094 3095 3096 3096 3097 3100 3101 3102 3104 3101 3096 3091 3090 3087 3082 3081 3083 3085 3085 3087 3089 3091 3091 3093 3095 3095 3095 3095 3096 3096 3097 3098 3100 3102 3103 3104 3104 3106 3108 3109 3109 3110 3112 3114 3116 3118 3120 3121 3123 3126 3128 3130 3132 3129 3127 3129 3130 3127 3125 3122 3122 3127 3131 3133 3131 3127 3129 3133 3134 3136 3137 3139 3141 3143 3144 3145 3145 3147 3147 3148 3151
3088 3087 3088 3086 3087 3090 3091 3090 3092 3093 3092 3095 3097 3097 3101 3099 3088 3085 3088 3088 3084 3080 3080 3082 3082 3083 3085 3086 3088 3089 3090 3091 3092 3092 3093 3093 3093 3093 3094 3095 3098 3098 3098 3100 3103 3103 3104 3106 3107 3108 3109 3110 3113 3114 3114 3116 3119 3121 3123 3125 3122 3120 3124 3126 3124 3122 3120 3121 3124 3128 3129 3125 3123 3126 3129 3131 3133 3134 3136 3138 3140 3142 3142 3143 3145 3146 3146 3148
3084 3083 3083 3083 3082 3085 3087 3087 3087 3089 3089 3091 3092 3095 3096 3087 3077 3080 3084 3083 3081 3080 3080 3080 3081 3082 3082 3082 3084 3085 3087 3088 3088 3089 3090 3090 3090 3089 3090 3091 3093 3095 3096 3097 3097 3097 3098 3097 3098 3101 3103 3105 3107 3108 3110 3113 3115 3116 3119 3121 3118 3116 3119 3119 3119 3119 3119 3120 3122 3124 3123 3119 3119 3122 3125 3128 3130 3132 3134 3135 3137 3139 3140 3142 3143 3143 3143 3144
3080 3079 3078 3079 3079 3079 3082 3083 3083 3085 3086 3086 3089 3090 3083 3073 3072 3078 3079 3079 3080 3079 3079 3079 3080 3079 3079 3079 3080 3081 3083 3083 3085 3086 3086 3085 3084 3084 3085 3085 3087 3091 3093 3092 3091 3092 3093 3091 3093 3097 3100 3102 3102 3104 3109 3112 3111 3112 3117 3116 3112 3114 3118 3116 3113 3115 3119 3119 3117 3117 3115 3116 3119 3120 3123 3126 3126 3129 3131 3132 3135 3136 3137 3139 3140 3140 3141 3142
3075 3075 3074 3074 3074 3074 3077 3078 3079 3081 3081 3082 3084 3078 3068 3066 3071 3074 3074 3076 3077 3077 3078 3077 3076 3076 3075 3075 3075 3077 3078 3079 3081 3082 3081 3081 3080 3080 3081 3081 3082 3085 3087 3088 3087 3088 3088 3088 3091 3094 3095 3098 3099 3102 3106 3107 3106 3109 3112 3108 3108 3114 3118 3115 3112 3114 3116 3113 3110 3111 3110 3113 3116 3116 3119 3123 3124 3126 3129 3130 3132 3133 3134 3135 3137 3139 3139 3138
3071 3071 3071 3070 3069 3070 3072 3074 3075 3076 3076 3078 3074 3065 3061 3065 3069 3070 3072 3074 3074 3075 3075 3072 3071 3071 3071 3070 3070 3071 3074 3075 3077 3077 3076 3076 3075 3075 3077 3078 3079 3080 3082 3085 3085 3085 3085 3085 3087 3090 3091 3094 3098 3101 3103 3104 3104 3104 3104 3105 3109 3115 3114 3112 3111 3111 3110 3106 3105 3106 3106 3107 3109 3109 3114 3119 3121 3123 3126 3127 3129 3129 3131 3132 3134 3136 3136 3136
3066 3066 3068 3065 3064 3066 3067 3069 3070 3071 3072 3071 3064 3057 3060 3064 3065 3067 3069 3070 3071 3072 3070 3068 3067 3067 3067 3066 3065 3067 3069 3070 3072 3073 3073 3072 3070 3070 3073 3074 3075 3076 3079 3082 3083 3083 3084 3083 3082 3085 3088 3091 3096 3099 3099 3100 3101 3100 3100 3103 3106 3106 3105 3106 3107 3105 3104 3102 3101 3103 3103 3102 3103 3105 3110 3115 3116 3119 3122 3124 3125 3126 3128 3129 3130 3133 3134 3134
3061 3063 3064 3060 3059 3062 3063 3064 3065 3066 3066 3063 3056 3054 3057 3059 3060 3063 3065 3066 3068 3068 3066 3065 3064 3063 3063 3063 3062 3063 3063 3064 3066 3068 3068 3068 3066 3066 3068 3070 3072 3073 3076 3079 3080 3080 3082 3082 3080 3081 3085 3089 3092 3093 3092 3092 3095 3098 3099 3099 3099 3098 3099 3101 3101 3100 3101 3099 3098 3101 3099 3096 3099 3102 3106 3110 3112 3115 3118 3119 3121 3123 3124 3125 3127 3129 3131 3132
3058 3060 3061 3056 3055 3059 3060 3060 3061 3061 3058 3055 3052 3053 3055 3056 3057 3059 3061 3062 3063 3063 3062 3062 3062 3061 3060 3060 3060 3059 3059 3059 3061 3063 3063 3064 3064 3062 3064 3066 3068 3070 3073 3076 3077 3078 3079 3080 3079 3079 3082 3085 3084 3083 3083 3085 3088 3091 3093 3092 3093 3094 3096 3097 3095 3097 3100 3096 3094 3097 3094 3092 3097 3101 3102 3105 3109 3111 3113 3115 3117 3120 3122 3122 3124 3125 3127 3129
3055 3056 3057 3054 3052 3055 3055 3055 3055 3055 3053 3050 3049 3050 3052 3053 3055 3055 3056 3058 3058 3058 3058 3058 3059 3058 3057 3058 3057 3057 3056 3054 3055 3057 3058 3059 3060 3059 3060 3063 3065 3067 3070 3072 3073 3074 3075 3077 3077 3076 3075 3077 3077 3077 3080 3083 3085 3086 3087 3088 3089 3089 3092 3092 3090 3092 3094 3092 3092 3094 3090 3089 3095 3098 3098 3102 3106 3108 3110 3111 3113 3116 3118 3120 3121 3122 3124 3125
3051 3052 3054 3051 3049 3051 3052 3050 3050 3051 3049 3046 3046 3047 3049 3050 3050 3051 3052 3053 3053 3053 3054 3054 3054 3054 3054 3054 3054 3055 3054 3051 3050 3052 3053 3054 3056 3057 3058 3060 3062 3064 3066 3067 3068 3071 3073 3074 3074 3073 3071 3072 3074 3077 3079 3081 3084 3084 3084 3086 3087 3087 3086 3086 3085 3087 3089 3089 3091 3093 3088 3087 3093 3096 3097 3100 3103 3106 3107 3108 3111 3113 3115 3118 3119 3120 3120 3121
3046 3046 3048 3048 3046 3048 3048 3045 3045 3046 3044 3043 3044 3044 3045 3046 3046 3046 3048 3048 3048 3049 3049 3049 3049 3050 3050 3051 3052 3052 3051 3049 3047 3049 3051 3052 3053 3055 3056 3057 3059 3061 3063 3064 3065 3068 3070 3070 3070 3071 3071 3071 3072 3075 3077 3078 3081 3081 3079 3080 3082 3082 3083 3083 3083 3086 3086 3084 3087 3089 3085 3084 3091 3095 3096 3098 3101 3104 3105 3106 3109 3111 3114 3116 3117 3118 3118 3118
3040 3039 3042 3044 3043 3043 3043 3041 3042 3042 3040 3040 3040 3039 3040 3041 3041 3041 3042 3043 3043 3044 3044 3044 3045 3046 3047 3048 3049 3049 3049 3047 3045 3046 3048 3049 3051 3053 3055 3055 3056 3058 3059 3060 3062 3063 3064 3065 3066 3067 3068 3068 3067 3068 3070 3072 3073 3073 3073 3074 3076 3078 3080 3081 3083 3085 3081 3079 3083 3083 3078 3081 3090 3093 3094 3097 3099 3101 3103 3105 3107 3109 3112 3114 3114 3115 3115 3115
3036 3035 3037 3039 3039 3038 3038 3038 3039 3039 3038 3038 3036 3035 3035 3035 3034 3036 3037 3038 3039 3040 3040 3039 3041 3042 3043 3045 3045 3045 3046 3045 3044 3044 3045 3047 3048 3051 3052 3053 3053 3055 3057 3057 3058 3060 3059 3060 3062 3060 3059 3060 3059 3059 3061 3064 3067 3069 3070 3071 3072 3074 3075 3076 3080 3079 3074 3076 3082 3079 3075 3080 3088 3090 3092 3094 3097 3099 3101 3103 3105 3108 3109 3111 3112 3112 3111 3112
3033 3033 3034 3036 3037 3035 3033 3034 3035 3034 3034 3033 3031 3030 3031 3030 3030 3032 3033 3033 3034 3036 3036 3036 3037 3038 3038 3040 3040 3040 3042 3042 3042 3043 3043 3044 3045 3047 3049 3051 3052 3053 3053 3053 3055 3057 3056 3056 3056 3056 3055 3055 3056 3057 3060 3063 3065 3065 3067 3068 3069 3070 3072 3074 3076 3072 3071 3077 3078 3075 3078 3082 3084 3086 3089 3091 3094 3097 3100 3101 3103 3105 3106 3107 3108 3108 3108 3111
3030 3030 3031 3033 3032 3031 3030 3030 3030 3027 3027 3027 3026 3026 3027 3027 3027 3028 3028 3029 3030 3031 3032 3032 3033 3033 3033 3035 3036 3036 3037 3039 3040 3039 3040 3041 3043 3044 3047 3048 3049 3050 3049 3051 3053 3054 3054 3052 3051 3053 3055 3055 3056 3058 3060 3062 3061 3061 3063 3065 3067 3068 3069 3070 3069 3068 3072 3075 3071 3073 3081 3082 3081 3084 3086 3087 3091 3094 3096 3099 3101 3102 3103 3104 3105 3105 3107 3109
3028 3027 3028 3029 3027 3026 3027 3026 3024 3022 3022 3023 3022 3022 3023 3023 3024 3024 3025 3025 3026 3027 3028 3027 3027 3028 3029 3031 3032 3032 3034 3035 3035 3036 3037 3039 3040 3042 3043 3044 3046 3047 3047 3050 3051 3051 3052 3050 3049 3051 3053 3055 3056 3056 3058 3059 3059 3058 3059 3061 3064 3065 3065 3065 3064 3067 3071 3069 3067 3072 3078 3078 3080 3083 3083 3085 3088 3090 3092 3095 3097 3099 3100 3101 3102 3103 3104 3106
3025 3024 3024 3024 3023 3022 3023 3022 3020 3019 3019 3020 3020 3020 3020 3020 3021 3022 3022 3021 3020 3021 3023 3024 3025 3026 3028 3029 3029 3028 3029 3030 3030 3032 3034 3036 3037 3038 3039 3039 3042 3044 3045 3047 3048 3049 3049 3048 3048 3050 3050 3052 3054 3055 3056 3057 3057 3057 3057 3058 3060 3061 3062 3063 3063 3065 3067 3066 3067 3071 3073 3074 3077 3079 3081 3083 3085 3087 3089 3091 3093 3095 3097 3098 3099 3101 3102 3103
3022 3021 3020 3020 3019 3018 3019 3019 3018 3017 3017 3018 3017 3017 3018 3019 3019 3020 3020 3018 3015 3015 3016 3016 3017 3019 3021 3023 3023 3024 3025 3027 3028 3029 3031 3032 3033 3034 3034 3034 3036 3039 3041 3043 3044 3046 3046 3045 3047 3050 3049 3049 3050 3052 3054 3054 3054 3054 3054 3055 3056 3056 3058 3060 3060 3062 3063 3063 3065 3068 3069 3070 3073 3076 3079 3081 3082 3083 3085 3087 3089 3091 3093 3095 3096 3097 3099 3101
3019 3018 3018 3018 3016 3016 3016 3016 3016 3015 3015 3015 3015 3015 3017 3017 3018 3017 3016 3014 3014 3014 3013 3010 3010 3011 3012 3015 3018 3022 3024 3025 3025 3026 3027 3028 3029 3031 3032 3033 3034 3035 3036 3039 3040 3042 3043 3044 3046 3049 3048 3046 3048 3050 3050 3051 3053 3052 3051 3051 3051 3052 3053 3054 3055 3058 3059 3060 3063 3064 3063 3065 3070 3074 3075 3077 3079 3080 3080 3082 3085 3087 3089 3091 3092 3094 3096 3098
3017 3016 3016 3015 3013 3013 3013 3012 3013 3013 3012 3012 3013 3014 3014 3014 3014 3014 3012 3011 3012 3013 3011 3009 3009 3008 3008 3011 3013 3014 3015 3015 3015 3016 3018 3019 3021 3024 3027 3030 3032 3032 3033 3035 3037 3038 3040 3041 3043 3045 3044 3043 3046 3048 3048 3050 3050 3046 3044 3046 3047 3048 3049 3049 3050 3053 3055 3057 3058 3058 3058 3062 3068 3071 3071 3073 3075 3075 3076 3078 3081 3083 3085 3087 3088 3090 3092 3094